Location: Gerlach
(40.6516°N, 119.3568°W)
Time: 01:16:01
(UTC-08:00)

A-11 Canister half - All Passes

Search period start: 28 January 2023 00:00
Search period end: 07 February 2023 00:00
Orbit: 1525 x 1683 km, 47.3° (Epoch: 25 January)

Date Brightness Start Highest point End Pass type
(mag) Time Alt. Az. Time Alt. Az. Time Alt. Az.
28 Jan - 04:51:29 10° SSE 04:57:38 20° SE 05:03:49 10° E visible
28 Jan - 06:52:06 10° SW 07:01:15 67° SE 07:10:37 10° ENE daylight
28 Jan - 08:57:12 10° W 09:06:29 65° NNW 09:16:03 10° ENE daylight
28 Jan - 11:03:13 10° WNW 11:12:36 62° N 11:22:19 10° E daylight
28 Jan - 13:08:31 10° WNW 13:18:06 76° SSW 13:28:01 10° SE daylight
28 Jan - 15:14:37 10° WNW 15:22:09 26° SW 15:29:51 10° S daylight
29 Jan - 04:30:13 10° SSE 04:36:02 19° SE 04:41:52 10° E visible
29 Jan - 06:30:29 10° SW 06:39:36 65° SE 06:48:52 10° ENE visible
29 Jan - 08:35:27 10° W 08:44:44 66° NNW 08:54:17 10° ENE daylight
29 Jan - 10:41:30 10° WNW 10:50:52 62° N 11:00:31 10° E daylight
29 Jan - 12:46:49 10° WNW 12:56:24 79° SSW 13:06:18 10° SE daylight
29 Jan - 14:52:47 10° WNW 15:00:30 28° SW 15:08:24 10° S daylight
30 Jan - 04:08:59 10° SSE 04:14:26 17° SE 04:19:53 10° E visible
30 Jan - 06:08:51 10° SW 06:17:56 62° SE 06:27:09 10° ENE visible
30 Jan - 08:13:44 10° W 08:23:00 67° NNW 08:32:32 10° ENE daylight
30 Jan - 10:19:47 10° WNW 10:29:06 61° N 10:38:43 10° E daylight
30 Jan - 12:25:07 10° WNW 12:34:42 81° SSW 12:44:35 10° SE daylight
30 Jan - 14:30:58 10° WNW 14:38:51 29° SW 14:46:57 10° S daylight
31 Jan - 03:47:49 10° SSE 03:52:50 16° SE 03:57:51 10° E visible
31 Jan - 05:47:15 10° SW 05:56:16 59° SE 06:05:25 10° ENE visible
31 Jan - 07:51:59 10° W 08:01:16 69° NNW 08:10:47 10° ENE daylight
31 Jan - 09:58:03 10° WNW 10:07:21 60° N 10:16:56 10° E daylight
31 Jan - 12:03:25 10° WNW 12:12:59 84° SSW 12:22:52 10° SE daylight
31 Jan - 14:09:10 10° WNW 14:17:12 31° SW 14:25:27 10° S daylight
01 Feb - 03:26:42 10° SSE 03:31:14 15° ESE 03:35:45 10° E visible
01 Feb - 05:25:39 10° SW 05:34:37 56° SE 05:43:40 10° ENE visible
01 Feb - 07:30:15 10° WSW 07:39:32 70° NNW 07:49:02 10° ENE daylight
01 Feb - 09:36:20 10° WNW 09:45:35 60° N 09:55:08 10° E daylight
01 Feb - 11:41:43 10° WNW 11:51:16 87° SSW 12:01:09 10° ESE daylight
01 Feb - 13:47:22 10° WNW 13:55:33 33° SW 14:03:58 10° S daylight
02 Feb - 03:05:42 10° SSE 03:09:38 13° ESE 03:13:34 10° E visible
02 Feb - 05:04:03 10° SSW 05:12:58 54° SE 05:21:57 10° ENE visible
02 Feb - 07:08:32 10° WSW 07:17:49 71° NNW 07:27:18 10° ENE daylight
02 Feb - 09:14:36 10° WNW 09:23:50 59° N 09:33:21 10° E daylight
02 Feb - 11:20:01 10° WNW 11:29:33 89° SW 11:39:24 10° ESE daylight
02 Feb - 13:25:36 10° WNW 13:33:54 34° SW 13:42:26 10° SSE daylight
03 Feb - 02:44:49 10° SE 02:48:03 12° ESE 02:51:15 10° E visible
03 Feb - 04:42:28 10° SSW 04:51:19 51° SE 05:00:13 10° ENE visible
03 Feb - 06:46:48 10° WSW 06:56:05 73° NNW 07:05:34 10° ENE daylight
03 Feb - 08:52:52 10° WNW 09:02:05 59° N 09:11:33 10° E daylight
03 Feb - 10:58:20 10° WNW 11:07:50 89° NNE 11:17:40 10° ESE daylight
03 Feb - 13:03:49 10° WNW 13:12:15 36° SW 13:20:54 10° SSE daylight
04 Feb - 02:24:14 10° SE 02:26:27 11° ESE 02:28:40 10° ESE visible
04 Feb - 04:20:53 10° SSW 04:29:40 49° SE 04:38:28 10° ENE visible
04 Feb - 06:25:04 10° WSW 06:34:22 75° NNW 06:43:50 10° ENE visible
04 Feb - 08:31:08 10° WNW 08:40:20 58° N 08:49:46 10° E daylight
04 Feb - 10:36:38 10° WNW 10:46:07 86° NNE 10:55:56 10° ESE daylight
04 Feb - 12:42:04 10° WNW 12:50:35 38° SW 12:59:22 10° SSE daylight
05 Feb - 03:59:19 10° SSW 04:08:01 46° SE 04:16:44 10° ENE visible
05 Feb - 06:03:21 10° WSW 06:12:39 77° NNW 06:22:06 10° ENE visible
05 Feb - 08:09:24 10° WNW 08:18:35 58° N 08:27:59 10° E daylight
05 Feb - 10:14:56 10° WNW 10:24:25 84° NNE 10:34:10 10° ESE daylight
05 Feb - 12:20:19 10° WNW 12:28:56 40° SW 12:37:48 10° SSE daylight
06 Feb - 03:37:45 10° SSW 03:46:23 44° SE 03:55:00 10° ENE visible
06 Feb - 05:41:38 10° WSW 05:50:56 79° NNW 06:00:23 10° ENE visible
06 Feb - 07:47:40 10° WNW 07:56:50 58° N 08:06:13 10° E daylight
06 Feb - 09:53:15 10° WNW 10:02:42 82° NNE 10:12:26 10° ESE daylight
06 Feb - 11:58:34 10° WNW 12:07:17 42° SW 12:16:15 10° SSE daylight
